Time,TemperatureF,DewpointF,PressureIn,WindDirection,WindDirectionDegrees,WindSpeedMPH,WindSpeedGustMPH,Humidity,HourlyPrecipIn,Conditions,Clouds,dailyrainin,SolarRadiationWatts/m^2,SoftwareType,DateUTC
2013-06-17 00:00:00,55.7,48.6,30.10,West,274,0.0,0.0,77,0.00,,,0.00,0002,Weather View 32 v70,2013-06-17 07:00:00,
2013-06-17 00:05:00,55.5,48.4,30.10,WSW,252,0.0,0.0,77,0.00,,,0.00,0002,Weather View 32 v70,2013-06-17 07:05:00,
2013-06-17 00:10:00,55.4,48.6,30.10,SSW,207,1.0,3.0,78,0.00,,,0.00,0001,Weather View 32 v70,2013-06-17 07:10:00,
2013-06-17 00:15:00,55.5,49.1,30.10,South,184,0.0,3.0,79,0.00,,,0.00,0001,Weather View 32 v70,2013-06-17 07:15:00,
2013-06-17 00:20:00,55.6,49.2,30.10,ESE,117,0.0,3.0,79,0.00,,,0.00,0001,Weather View 32 v70,2013-06-17 07:20:00,
2013-06-17 00:30:00,55.8,49.4,30.10,WSW,252,0.0,3.0,79,0.00,,,0.00,0001,Weather View 32 v70,2013-06-17 07:30:00,
2013-06-17 00:40:00,55.6,49.2,30.10,West,274,0.0,3.0,79,0.00,,,0.00,0002,Weather View 32 v70,2013-06-17 07:40:00,
2013-06-17 00:45:00,55.5,49.1,30.10,West,274,0.0,3.0,79,0.00,,,0.00,0001,Weather View 32 v70,2013-06-17 07:45:00,
2013-06-17 00:55:00,55.2,49.1,30.10,WNW,297,1.0,3.0,80,0.00,,,0.00,0001,Weather View 32 v70,2013-06-17 07:55:00,
2013-06-17 01:00:00,55.2,49.1,30.10,West,274,1.0,3.0,80,0.00,,,0.00,0001,Weather View 32 v70,2013-06-17 08:00:00,
2013-06-17 01:05:00,55.0,48.9,30.09,WSW,252,0.0,3.0,80,0.00,,,0.00,0001,Weather View 32 v70,2013-06-17 08:05:00,
2013-06-17 01:10:00,54.9,48.8,30.09,West,274,0.0,3.0,80,0.00,,,0.00,0002,Weather View 32 v70,2013-06-17 08:10:00,
2013-06-17 01:15:00,54.8,49.1,30.10,WSW,252,0.0,3.0,81,0.00,,,0.00,0001,Weather View 32 v70,2013-06-17 08:15:00,
2013-06-17 01:25:00,54.6,48.9,30.09,WSW,252,0.0,3.0,81,0.00,,,0.00,0001,Weather View 32 v70,2013-06-17 08:25:00,
2013-06-17 01:30:00,54.6,48.9,30.09,WSW,252,0.0,3.0,81,0.00,,,0.00,0001,Weather View 32 v70,2013-06-17 08:30:00,
2013-06-17 01:35:00,54.5,49.1,30.09,West,274,0.0,3.0,82,0.00,,,0.00,0001,Weather View 32 v70,2013-06-17 08:35:00,
2013-06-17 01:40:00,54.4,49.0,30.09,West,274,0.0,3.0,82,0.00,,,0.00,0002,Weather View 32 v70,2013-06-17 08:40:00,
2013-06-17 01:50:00,54.3,48.9,30.09,WSW,252,0.0,3.0,82,0.00,,,0.00,0001,Weather View 32 v70,2013-06-17 08:50:00,
2013-06-17 01:55:00,54.1,48.7,30.09,SW,229,0.0,3.0,82,0.00,,,0.00,0001,Weather View 32 v70,2013-06-17 08:55:00,
2013-06-17 02:00:00,54.0,48.9,30.09,WSW,252,0.0,1.0,83,0.00,,,0.00,0001,Weather View 32 v70,2013-06-17 09:00:00,
2013-06-17 02:05:00,53.9,48.8,30.09,West,274,0.0,0.0,83,0.00,,,0.00,0001,Weather View 32 v70,2013-06-17 09:05:00,
2013-06-17 02:15:00,53.9,49.2,30.09,WSW,252,0.0,2.0,84,0.00,,,0.00,0001,Weather View 32 v70,2013-06-17 09:15:00,
2013-06-17 02:20:00,53.9,49.2,30.09,West,274,0.0,2.0,84,0.00,,,0.00,0002,Weather View 32 v70,2013-06-17 09:20:00,
2013-06-17 02:25:00,53.9,49.2,30.09,WSW,252,0.0,2.0,84,0.00,,,0.00,0002,Weather View 32 v70,2013-06-17 09:25:00,
2013-06-17 02:30:00,53.8,49.1,30.09,West,274,1.0,2.0,84,0.00,,,0.00,0001,Weather View 32 v70,2013-06-17 09:30:00,
2013-06-17 02:40:00,53.7,49.3,30.09,WSW,252,0.0,2.0,85,0.00,,,0.00,0002,Weather View 32 v70,2013-06-17 09:40:00,
2013-06-17 02:45:00,53.7,49.3,30.09,West,274,1.0,3.0,85,0.00,,,0.00,0002,Weather View 32 v70,2013-06-17 09:45:00,
2013-06-17 02:50:00,53.7,49.3,30.08,SW,229,0.0,3.0,85,0.00,,,0.00,0002,Weather View 32 v70,2013-06-17 09:50:00,
2013-06-17 02:55:00,53.6,49.2,30.09,WSW,252,0.0,3.0,85,0.00,,,0.00,0001,Weather View 32 v70,2013-06-17 09:55:00,
2013-06-17 03:00:00,53.5,49.1,30.09,West,274,0.0,3.0,85,0.00,,,0.00,0002,Weather View 32 v70,2013-06-17 10:00:00,
2013-06-17 03:10:00,53.3,48.9,30.09,SSW,207,0.0,3.0,85,0.00,,,0.00,0001,Weather View 32 v70,2013-06-17 10:10:00,
2013-06-17 03:15:00,53.2,49.1,30.09,SSW,207,0.0,3.0,86,0.00,,,0.00,0002,Weather View 32 v70,2013-06-17 10:15:00,
2013-06-17 03:20:00,53.3,49.2,30.09,SSW,207,0.0,3.0,86,0.00,,,0.00,0002,Weather View 32 v70,2013-06-17 10:20:00,
2013-06-17 03:25:00,53.2,49.1,30.09,NE,49,0.0,3.0,86,0.00,,,0.00,0001,Weather View 32 v70,2013-06-17 10:25:00,
2013-06-17 03:31:00,53.1,49.0,30.09,SSW,207,0.0,3.0,86,0.00,,,0.00,0002,Weather View 32 v70,2013-06-17 10:31:00,
2013-06-17 03:40:00,52.8,48.7,30.09,South,184,0.0,3.0,86,0.00,,,0.00,0002,Weather View 32 v70,2013-06-17 10:40:00,
2013-06-17 03:45:00,52.6,48.8,30.09,SSW,207,0.0,3.0,87,0.00,,,0.00,0002,Weather View 32 v70,2013-06-17 10:45:00,
2013-06-17 03:50:00,52.3,48.5,30.09,South,184,0.0,2.0,87,0.00,,,0.00,0001,Weather View 32 v70,2013-06-17 10:50:00,
2013-06-17 03:55:00,52.1,48.3,30.09,South,184,0.0,2.0,87,0.00,,,0.00,0002,Weather View 32 v70,2013-06-17 10:55:00,
2013-06-17 04:05:00,52.2,49.0,30.09,South,184,0.0,2.0,89,0.00,,,0.00,0002,Weather View 32 v70,2013-06-17 11:05:00,
2013-06-17 04:10:00,52.4,49.2,30.09,SSW,207,0.0,3.0,89,0.00,,,0.00,0002,Weather View 32 v70,2013-06-17 11:10:00,
2013-06-17 04:15:00,52.3,49.1,30.09,South,184,0.0,3.0,89,0.00,,,0.00,0002,Weather View 32 v70,2013-06-17 11:15:00,
2013-06-17 04:20:00,52.2,49.0,30.09,SW,229,0.0,3.0,89,0.00,,,0.00,0002,Weather View 32 v70,2013-06-17 11:20:00,
2013-06-17 04:30:00,52.5,49.6,30.09,SSW,207,2.0,3.0,90,0.00,,,0.00,0002,Weather View 32 v70,2013-06-17 11:30:00,
2013-06-17 04:35:00,52.4,49.2,30.09,SSW,207,0.0,3.0,89,0.00,,,0.00,0001,Weather View 32 v70,2013-06-17 11:35:00,
2013-06-17 04:40:00,52.2,49.0,30.09,South,184,0.0,3.0,89,0.00,,,0.00,0002,Weather View 32 v70,2013-06-17 11:40:00,
2013-06-17 04:45:00,52.1,49.0,30.09,SW,229,0.0,3.0,89,0.00,,,0.00,0001,Weather View 32 v70,2013-06-17 11:45:00,
2013-06-17 04:55:00,52.3,49.1,30.09,South,184,0.0,3.0,89,0.00,,,0.00,0001,Weather View 32 v70,2013-06-17 11:55:00,
2013-06-17 05:00:00,52.2,49.0,30.09,SSW,207,0.0,3.0,89,0.00,,,0.00,0001,Weather View 32 v70,2013-06-17 12:00:00,
2013-06-17 05:05:00,52.1,49.0,30.09,SSW,207,0.0,3.0,89,0.00,,,0.00,0001,Weather View 32 v70,2013-06-17 12:05:00,
2013-06-17 05:10:00,52.0,48.9,30.09,SW,229,0.0,3.0,89,0.00,,,0.00,0001,Weather View 32 v70,2013-06-17 12:10:00,
2013-06-17 05:20:00,52.1,49.2,30.09,South,184,0.0,3.0,90,0.00,,,0.00,0002,Weather View 32 v70,2013-06-17 12:20:00,
2013-06-17 05:25:00,52.0,49.2,30.10,SW,229,0.0,3.0,90,0.00,,,0.00,0002,Weather View 32 v70,2013-06-17 12:25:00,
2013-06-17 05:30:00,52.0,49.2,30.10,SW,229,0.0,3.0,90,0.00,,,0.00,0002,Weather View 32 v70,2013-06-17 12:30:00,
2013-06-17 05:35:00,51.9,49.1,30.10,SW,229,0.0,3.0,90,0.00,,,0.00,0003,Weather View 32 v70,2013-06-17 12:35:00,
2013-06-17 05:40:00,51.7,48.9,30.10,WSW,252,0.0,1.0,90,0.00,,,0.00,0004,Weather View 32 v70,2013-06-17 12:40:00,
2013-06-17 05:50:00,51.4,48.6,30.10,WSW,252,0.0,0.0,90,0.00,,,0.00,0009,Weather View 32 v70,2013-06-17 12:50:00,
2013-06-17 05:55:00,51.5,49.0,30.10,WSW,252,0.0,0.0,91,0.00,,,0.00,0015,Weather View 32 v70,2013-06-17 12:55:00,
2013-06-17 06:00:00,51.6,49.1,30.10,SW,229,0.0,0.0,91,0.00,,,0.00,0029,Weather View 32 v70,2013-06-17 13:00:00,
2013-06-17 06:05:00,51.7,49.2,30.10,WSW,252,0.0,0.0,91,0.00,,,0.00,0047,Weather View 32 v70,2013-06-17 13:05:00,
2013-06-17 06:15:00,52.5,49.6,30.10,West,274,2.0,3.0,90,0.00,,,0.00,0078,Weather View 32 v70,2013-06-17 13:15:00,
2013-06-17 06:20:00,53.0,50.1,30.10,South,184,0.0,3.0,90,0.00,,,0.00,0094,Weather View 32 v70,2013-06-17 13:20:00,
2013-06-17 06:25:00,53.5,50.3,30.10,NW,319,0.0,3.0,89,0.00,,,0.00,0108,Weather View 32 v70,2013-06-17 13:25:00,
2013-06-17 06:30:00,54.0,50.5,30.10,WSW,252,0.0,3.0,88,0.00,,,0.00,0121,Weather View 32 v70,2013-06-17 13:30:00,
2013-06-17 06:40:00,55.1,51.3,30.10,SSW,207,1.0,3.0,87,0.00,,,0.00,0147,Weather View 32 v70,2013-06-17 13:40:00,
2013-06-17 06:45:00,55.4,51.3,30.11,SE,139,0.0,3.0,86,0.00,,,0.00,0161,Weather View 32 v70,2013-06-17 13:45:00,
2013-06-17 06:50:00,56.0,51.5,30.11,South,184,0.0,3.0,85,0.00,,,0.00,0172,Weather View 32 v70,2013-06-17 13:50:00,
2013-06-17 06:55:00,56.6,51.8,30.11,East,94,0.0,3.0,84,0.00,,,0.00,0185,Weather View 32 v70,2013-06-17 13:55:00,
2013-06-17 07:00:00,56.8,51.7,30.11,ESE,117,1.0,4.0,83,0.00,,,0.00,0197,Weather View 32 v70,2013-06-17 14:00:00,
2013-06-17 07:10:00,56.8,51.0,30.11,NE,49,2.0,4.0,81,0.00,,,0.00,0225,Weather View 32 v70,2013-06-17 14:10:00,
2013-06-17 07:15:00,56.6,50.8,30.11,SE,139,1.0,4.0,81,0.00,,,0.00,0238,Weather View 32 v70,2013-06-17 14:15:00,
2013-06-17 07:20:00,57.0,50.9,30.11,ENE,72,1.0,4.0,80,0.00,,,0.00,0251,Weather View 32 v70,2013-06-17 14:20:00,
2013-06-17 07:25:00,56.9,50.8,30.11,ENE,72,2.0,4.0,80,0.00,,,0.00,0261,Weather View 32 v70,2013-06-17 14:25:00,
2013-06-17 07:33:00,57.3,51.2,30.11,NE,49,1.0,4.0,80,0.00,,,0.00,0272,Weather View 32 v70,2013-06-17 14:33:00,
2013-06-17 07:40:00,58.0,51.2,30.11,ENE,72,3.0,4.0,78,0.00,,,0.00,0297,Weather View 32 v70,2013-06-17 14:40:00,
2013-06-17 07:45:00,58.3,51.5,30.11,ESE,117,3.0,4.0,78,0.00,,,0.00,0309,Weather View 32 v70,2013-06-17 14:45:00,
2013-06-17 07:50:00,57.7,50.5,30.11,NNE,27,2.0,5.0,77,0.00,,,0.00,0321,Weather View 32 v70,2013-06-17 14:50:00,
2013-06-17 07:55:00,58.2,51.0,30.11,ESE,117,1.0,5.0,77,0.00,,,0.00,0331,Weather View 32 v70,2013-06-17 14:55:00,
2013-06-17 08:05:00,58.5,50.9,30.11,SE,139,1.0,5.0,76,0.00,,,0.00,0357,Weather View 32 v70,2013-06-17 15:05:00,
2013-06-17 08:10:00,59.5,51.9,30.11,ENE,72,2.0,5.0,76,0.00,,,0.00,0369,Weather View 32 v70,2013-06-17 15:10:00,
2013-06-17 08:15:00,59.9,51.6,30.11,ESE,117,0.0,5.0,74,0.00,,,0.00,0382,Weather View 32 v70,2013-06-17 15:15:00,
2013-06-17 08:20:00,60.4,51.7,30.11,ENE,72,1.0,5.0,73,0.00,,,0.00,0394,Weather View 32 v70,2013-06-17 15:20:00,
2013-06-17 08:30:00,61.2,51.7,30.11,ESE,117,3.0,5.0,71,0.00,,,0.00,0419,Weather View 32 v70,2013-06-17 15:30:00,
2013-06-17 08:35:00,60.7,50.8,30.11,ESE,117,3.0,5.0,70,0.00,,,0.00,0431,Weather View 32 v70,2013-06-17 15:35:00,
2013-06-17 08:40:00,61.4,51.5,30.11,SE,139,0.0,5.0,70,0.00,,,0.00,0444,Weather View 32 v70,2013-06-17 15:40:00,
2013-06-17 08:45:00,61.7,51.4,30.11,East,94,4.0,5.0,69,0.00,,,0.00,0458,Weather View 32 v70,2013-06-17 15:45:00,
2013-06-17 08:50:00,62.0,51.3,30.11,SSE,162,2.0,5.0,68,0.00,,,0.00,0469,Weather View 32 v70,2013-06-17 15:50:00,
2013-06-17 09:00:00,62.4,51.3,30.11,NNE,27,2.0,6.0,67,0.00,,,0.00,0495,Weather View 32 v70,2013-06-17 16:00:00,
2013-06-17 09:05:00,62.4,50.9,30.11,NW,319,3.0,6.0,66,0.00,,,0.00,0508,Weather View 32 v70,2013-06-17 16:05:00,
2013-06-17 09:10:00,63.0,51.8,30.11,ENE,72,3.0,6.0,67,0.00,,,0.00,0520,Weather View 32 v70,2013-06-17 16:10:00,
2013-06-17 09:15:00,63.4,51.4,30.11,East,94,4.0,6.0,65,0.00,,,0.00,0535,Weather View 32 v70,2013-06-17 16:15:00,
2013-06-17 09:25:00,64.4,51.5,30.11,SW,229,1.0,6.0,63,0.00,,,0.00,0562,Weather View 32 v70,2013-06-17 16:25:00,
2013-06-17 09:34:00,65.0,51.6,30.10,NE,49,3.0,6.0,62,0.00,,,0.00,0575,Weather View 32 v70,2013-06-17 16:34:00,
2013-06-17 09:40:00,65.6,51.8,30.10,NNE,27,4.0,7.0,61,0.00,,,0.00,0600,Weather View 32 v70,2013-06-17 16:40:00,
2013-06-17 09:50:00,66.1,51.3,30.10,NNE,27,2.0,7.0,59,0.00,,,0.00,0626,Weather View 32 v70,2013-06-17 16:50:00,
2013-06-17 09:55:00,66.5,50.8,30.10,NNE,27,5.0,7.0,57,0.00,,,0.00,0638,Weather View 32 v70,2013-06-17 16:55:00,
2013-06-17 10:00:00,67.1,50.8,30.10,ENE,72,1.0,7.0,56,0.00,,,0.00,0651,Weather View 32 v70,2013-06-17 17:00:00,
2013-06-17 10:05:00,68.0,51.7,30.09,North,4,1.0,7.0,56,0.00,,,0.00,0662,Weather View 32 v70,2013-06-17 17:05:00,
2013-06-17 10:10:00,68.6,51.7,30.09,NNE,27,1.0,7.0,55,0.00,,,0.00,0674,Weather View 32 v70,2013-06-17 17:10:00,
2013-06-17 10:15:00,68.9,51.0,30.09,NNE,27,2.0,7.0,53,0.00,,,0.00,0686,Weather View 32 v70,2013-06-17 17:15:00,
2013-06-17 10:25:00,68.8,50.9,30.09,NE,49,4.0,7.0,53,0.00,,,0.00,0705,Weather View 32 v70,2013-06-17 17:25:00,
2013-06-17 10:30:00,68.3,49.9,30.09,SE,139,4.0,7.0,52,0.00,,,0.00,0713,Weather View 32 v70,2013-06-17 17:30:00,
2013-06-17 10:35:00,68.7,50.3,30.09,East,94,6.0,7.0,52,0.00,,,0.00,0721,Weather View 32 v70,2013-06-17 17:35:00,
2013-06-17 10:45:00,69.2,51.3,30.09,ESE,117,3.0,9.0,53,0.00,,,0.00,0740,Weather View 32 v70,2013-06-17 17:45:00,
2013-06-17 10:55:00,70.2,51.2,30.09,South,184,3.0,9.0,51,0.00,,,0.00,0756,Weather View 32 v70,2013-06-17 17:55:00,
2013-06-17 11:00:00,70.7,50.5,30.09,East,94,4.0,9.0,49,0.00,,,0.00,0762,Weather View 32 v70,2013-06-17 18:00:00,
2013-06-17 11:05:00,70.7,50.0,30.09,SSE,162,3.0,9.0,48,0.00,,,0.00,0767,Weather View 32 v70,2013-06-17 18:05:00,
2013-06-17 11:10:00,71.4,50.6,30.09,ENE,72,6.0,9.0,48,0.00,,,0.00,0774,Weather View 32 v70,2013-06-17 18:10:00,
2013-06-17 11:20:00,72.9,50.8,30.08,ENE,72,2.0,9.0,46,0.00,,,0.00,0787,Weather View 32 v70,2013-06-17 18:20:00,
2013-06-17 11:25:00,73.4,51.3,30.09,SE,139,1.0,9.0,46,0.00,,,0.00,0789,Weather View 32 v70,2013-06-17 18:25:00,
2013-06-17 11:30:00,73.8,51.1,30.09,SE,139,1.0,9.0,45,0.00,,,0.00,0796,Weather View 32 v70,2013-06-17 18:30:00,
2013-06-17 11:35:00,73.7,49.1,30.09,South,184,3.0,9.0,42,0.00,,,0.00,0801,Weather View 32 v70,2013-06-17 18:35:00,
2013-06-17 11:40:00,73.5,48.3,30.09,West,274,3.0,12.0,41,0.00,,,0.00,0805,Weather View 32 v70,2013-06-17 18:40:00,
2013-06-17 11:50:00,73.0,47.8,30.09,SSW,207,5.0,12.0,41,0.00,,,0.00,0816,Weather View 32 v70,2013-06-17 18:50:00,
2013-06-17 11:55:00,72.7,47.6,30.09,South,184,2.0,12.0,41,0.00,,,0.00,0819,Weather View 32 v70,2013-06-17 18:55:00,
2013-06-17 12:00:00,72.7,48.8,30.09,SSW,207,6.0,12.0,43,0.00,,,0.00,0825,Weather View 32 v70,2013-06-17 19:00:00,
2013-06-17 12:05:00,72.3,48.5,30.09,SE,139,3.0,12.0,43,0.00,,,0.00,0829,Weather View 32 v70,2013-06-17 19:05:00,
2013-06-17 12:10:00,72.1,49.5,30.10,WNW,297,4.0,12.0,45,0.00,,,0.00,0834,Weather View 32 v70,2013-06-17 19:10:00,
2013-06-17 12:20:00,72.0,50.0,30.10,NW,319,3.0,12.0,46,0.00,,,0.00,0846,Weather View 32 v70,2013-06-17 19:20:00,
2013-06-17 12:25:00,71.6,50.2,30.10,West,274,3.0,12.0,47,0.00,,,0.00,0850,Weather View 32 v70,2013-06-17 19:25:00,
2013-06-17 12:30:00,71.1,50.4,30.10,WSW,252,13.0,13.0,48,0.00,,,0.00,0857,Weather View 32 v70,2013-06-17 19:30:00,
2013-06-17 12:35:00,70.4,50.3,30.09,SSW,207,5.0,16.0,49,0.00,,,0.00,0863,Weather View 32 v70,2013-06-17 19:35:00,
2013-06-17 12:40:00,70.7,50.5,30.10,West,274,3.0,16.0,49,0.00,,,0.00,0867,Weather View 32 v70,2013-06-17 19:40:00,
2013-06-17 12:50:00,71.3,52.2,30.10,SSW,207,5.0,16.0,51,0.00,,,0.00,0875,Weather View 32 v70,2013-06-17 19:50:00,
2013-06-17 12:55:00,71.2,52.6,30.10,South,184,6.0,16.0,52,0.00,,,0.00,0881,Weather View 32 v70,2013-06-17 19:55:00,
2013-06-17 13:00:00,71.1,53.0,30.10,SSW,207,10.0,16.0,53,0.00,,,0.00,0882,Weather View 32 v70,2013-06-17 20:00:00,
2013-06-17 13:05:00,71.1,53.0,30.10,SSW,207,4.0,16.0,53,0.00,,,0.00,0886,Weather View 32 v70,2013-06-17 20:05:00,
2013-06-17 13:10:00,71.5,52.9,30.10,West,274,3.0,16.0,52,0.00,,,0.00,0889,Weather View 32 v70,2013-06-17 20:10:00,
2013-06-17 13:20:00,70.6,52.1,30.10,SW,229,6.0,17.0,52,0.00,,,0.00,0890,Weather View 32 v70,2013-06-17 20:20:00,
2013-06-17 13:25:00,69.7,52.3,30.10,SSE,162,11.0,17.0,54,0.00,,,0.00,0891,Weather View 32 v70,2013-06-17 20:25:00,
2013-06-17 13:35:00,70.5,53.0,30.10,South,184,8.0,17.0,54,0.00,,,0.00,0888,Weather View 32 v70,2013-06-17 20:35:00,
2013-06-17 13:40:00,70.3,52.3,30.10,SW,229,4.0,17.0,53,0.00,,,0.00,0885,Weather View 32 v70,2013-06-17 20:40:00,
2013-06-17 13:50:00,69.1,52.7,30.10,South,184,12.0,17.0,56,0.00,,,0.00,0875,Weather View 32 v70,2013-06-17 20:50:00,
2013-06-17 13:55:00,68.7,52.8,30.10,SSE,162,6.0,19.0,57,0.00,,,0.00,0872,Weather View 32 v70,2013-06-17 20:55:00,
2013-06-17 14:00:00,69.8,53.8,30.10,WNW,297,6.0,19.0,57,0.00,,,0.00,0868,Weather View 32 v70,2013-06-17 21:00:00,
2013-06-17 14:05:00,70.2,54.2,30.09,West,274,5.0,19.0,57,0.00,,,0.00,0865,Weather View 32 v70,2013-06-17 21:05:00,
2013-06-17 14:15:00,70.0,53.5,30.09,SSW,207,7.0,19.0,56,0.00,,,0.00,0850,Weather View 32 v70,2013-06-17 21:15:00,
2013-06-17 14:20:00,70.1,53.6,30.10,SSW,207,4.0,19.0,56,0.00,,,0.00,0838,Weather View 32 v70,2013-06-17 21:20:00,
2013-06-17 14:25:00,70.8,54.3,30.09,West,274,5.0,19.0,56,0.00,,,0.00,0832,Weather View 32 v70,2013-06-17 21:25:00,
2013-06-17 14:30:00,70.6,54.1,30.09,NW,319,10.0,19.0,56,0.00,,,0.00,0825,Weather View 32 v70,2013-06-17 21:30:00,
2013-06-17 14:35:00,70.0,53.5,30.10,WSW,252,9.0,19.0,56,0.00,,,0.00,0816,Weather View 32 v70,2013-06-17 21:35:00,
2013-06-17 14:45:00,69.3,53.4,30.09,South,184,11.0,19.0,57,0.00,,,0.00,0799,Weather View 32 v70,2013-06-17 21:45:00,
2013-06-17 14:50:00,69.8,53.8,30.10,SSW,207,10.0,19.0,57,0.00,,,0.00,0793,Weather View 32 v70,2013-06-17 21:50:00,
2013-06-17 14:55:00,68.3,53.4,30.09,SSW,207,7.0,17.0,59,0.00,,,0.00,0781,Weather View 32 v70,2013-06-17 21:55:00,
2013-06-17 15:00:00,68.7,54.7,30.09,WSW,252,6.0,21.0,61,0.00,,,0.00,0775,Weather View 32 v70,2013-06-17 22:00:00,
2013-06-17 15:10:00,68.6,54.1,30.09,West,274,6.0,24.0,60,0.00,,,0.00,0760,Weather View 32 v70,2013-06-17 22:10:00,
2013-06-17 15:15:00,69.3,54.8,30.09,NW,319,7.0,24.0,60,0.00,,,0.00,0754,Weather View 32 v70,2013-06-17 22:15:00,
2013-06-17 15:25:00,68.9,54.4,30.09,ESE,117,4.0,24.0,60,0.00,,,0.00,0734,Weather View 32 v70,2013-06-17 22:25:00,
2013-06-17 15:30:00,69.2,54.7,30.09,NW,319,9.0,24.0,60,0.00,,,0.00,0729,Weather View 32 v70,2013-06-17 22:30:00,
2013-06-17 15:35:00,69.0,54.0,30.09,NW,319,9.0,24.0,59,0.00,,,0.00,0719,Weather View 32 v70,2013-06-17 22:35:00,
2013-06-17 15:45:00,68.8,54.3,30.08,West,274,9.0,24.0,60,0.00,,,0.00,0707,Weather View 32 v70,2013-06-17 22:45:00,
2013-06-17 15:50:00,68.3,53.8,30.09,SW,229,6.0,24.0,60,0.00,,,0.00,0698,Weather View 32 v70,2013-06-17 22:50:00,
2013-06-17 15:55:00,68.4,54.4,30.08,ESE,117,6.0,24.0,61,0.00,,,0.00,0689,Weather View 32 v70,2013-06-17 22:55:00,
2013-06-17 16:00:00,68.3,53.8,30.08,WSW,252,6.0,24.0,60,0.00,,,0.00,0682,Weather View 32 v70,2013-06-17 23:00:00,
2013-06-17 16:05:00,67.0,53.1,30.09,WSW,252,9.0,24.0,61,0.00,,,0.00,0673,Weather View 32 v70,2013-06-17 23:05:00,
2013-06-17 16:15:00,67.2,53.7,30.09,West,274,9.0,19.0,62,0.00,,,0.00,0653,Weather View 32 v70,2013-06-17 23:15:00,
2013-06-17 16:20:00,66.5,53.9,30.09,SW,229,7.0,19.0,64,0.00,,,0.00,0642,Weather View 32 v70,2013-06-17 23:20:00,
2013-06-17 16:25:00,67.1,54.0,30.08,SW,229,12.0,19.0,63,0.00,,,0.00,0635,Weather View 32 v70,2013-06-17 23:25:00,
2013-06-17 16:30:00,66.9,54.3,30.08,West,274,5.0,19.0,64,0.00,,,0.00,0623,Weather View 32 v70,2013-06-17 23:30:00,
2013-06-17 16:35:00,67.3,54.7,30.08,South,184,3.0,19.0,64,0.00,,,0.00,0613,Weather View 32 v70,2013-06-17 23:35:00,
2013-06-17 16:45:00,66.1,53.5,30.08,South,184,6.0,19.0,64,0.00,,,0.00,0589,Weather View 32 v70,2013-06-17 23:45:00,
2013-06-17 16:50:00,66.3,54.1,30.08,South,184,3.0,19.0,65,0.00,,,0.00,0579,Weather View 32 v70,2013-06-17 23:50:00,
2013-06-17 16:55:00,66.4,54.2,30.08,SSE,162,2.0,19.0,65,0.00,,,0.00,0568,Weather View 32 v70,2013-06-17 23:55:00,
2013-06-17 17:00:00,66.6,54.0,30.08,WNW,297,10.0,19.0,64,0.00,,,0.00,0557,Weather View 32 v70,2013-06-18 00:00:00,
2013-06-17 17:10:00,65.0,53.3,30.08,SW,229,9.0,19.0,66,0.00,,,0.00,0530,Weather View 32 v70,2013-06-18 00:10:00,
2013-06-17 17:15:00,64.5,53.7,30.08,SSW,207,13.0,19.0,68,0.00,,,0.00,0520,Weather View 32 v70,2013-06-18 00:15:00,
2013-06-17 17:20:00,64.2,53.8,30.08,SSW,207,5.0,20.0,69,0.00,,,0.00,0507,Weather View 32 v70,2013-06-18 00:20:00,
2013-06-17 17:25:00,64.2,54.2,30.07,SSW,207,9.0,20.0,70,0.00,,,0.00,0494,Weather View 32 v70,2013-06-18 00:25:00,
2013-06-17 17:35:00,64.1,54.1,30.07,SSW,207,7.0,21.0,70,0.00,,,0.00,0468,Weather View 32 v70,2013-06-18 00:35:00,
2013-06-17 17:40:00,64.2,53.8,30.07,SW,229,6.0,21.0,69,0.00,,,0.00,0457,Weather View 32 v70,2013-06-18 00:40:00,
2013-06-17 17:45:00,64.3,54.3,30.07,WNW,297,6.0,21.0,70,0.00,,,0.00,0445,Weather View 32 v70,2013-06-18 00:45:00,
2013-06-17 17:50:00,64.4,54.4,30.07,South,184,7.0,21.0,70,0.00,,,0.00,0434,Weather View 32 v70,2013-06-18 00:50:00,
2013-06-17 17:55:00,64.0,54.0,30.07,SW,229,7.0,21.0,70,0.00,,,0.00,0420,Weather View 32 v70,2013-06-18 00:55:00,
2013-06-17 18:05:00,64.6,54.2,30.07,SSW,207,4.0,21.0,69,0.00,,,0.00,0393,Weather View 32 v70,2013-06-18 01:05:00,
2013-06-17 18:10:00,64.7,54.3,30.06,SSW,207,2.0,21.0,69,0.00,,,0.00,0382,Weather View 32 v70,2013-06-18 01:10:00,
2013-06-17 18:20:00,63.7,53.3,30.06,SSW,207,12.0,21.0,69,0.00,,,0.00,0360,Weather View 32 v70,2013-06-18 01:20:00,
2013-06-17 18:25:00,63.7,53.7,30.06,SSW,207,4.0,21.0,70,0.00,,,0.00,0348,Weather View 32 v70,2013-06-18 01:25:00,
2013-06-17 18:30:00,63.4,53.8,30.06,SW,229,4.0,22.0,71,0.00,,,0.00,0336,Weather View 32 v70,2013-06-18 01:30:00,
2013-06-17 18:40:00,63.0,53.8,30.06,SSE,162,5.0,22.0,72,0.00,,,0.00,0311,Weather View 32 v70,2013-06-18 01:40:00,
2013-06-17 18:50:00,63.0,53.8,30.06,SW,229,6.0,22.0,72,0.00,,,0.00,0284,Weather View 32 v70,2013-06-18 01:50:00,
2013-06-17 18:55:00,62.6,53.4,30.06,South,184,10.0,22.0,72,0.00,,,0.00,0269,Weather View 32 v70,2013-06-18 01:55:00,
2013-06-17 19:00:00,62.6,53.4,30.06,SSW,207,4.0,22.0,72,0.00,,,0.00,0256,Weather View 32 v70,2013-06-18 02:00:00,
2013-06-17 19:05:00,62.5,53.3,30.06,SW,229,9.0,22.0,72,0.00,,,0.00,0243,Weather View 32 v70,2013-06-18 02:05:00,
2013-06-17 19:15:00,62.2,53.4,30.06,SW,229,9.0,22.0,73,0.00,,,0.00,0222,Weather View 32 v70,2013-06-18 02:15:00,
2013-06-17 19:20:00,62.2,53.4,30.06,South,184,4.0,22.0,73,0.00,,,0.00,0209,Weather View 32 v70,2013-06-18 02:20:00,
2013-06-17 19:25:00,62.3,53.5,30.06,SW,229,7.0,22.0,73,0.00,,,0.00,0177,Weather View 32 v70,2013-06-18 02:25:00,
2013-06-17 19:30:00,62.4,53.6,30.06,WNW,297,4.0,17.0,73,0.00,,,0.00,0097,Weather View 32 v70,2013-06-18 02:30:00,
2013-06-17 19:40:00,61.6,53.2,30.06,SSW,207,5.0,17.0,74,0.00,,,0.00,0043,Weather View 32 v70,2013-06-18 02:40:00,
2013-06-17 19:45:00,61.0,53.0,30.06,SSW,207,8.0,17.0,75,0.00,,,0.00,0032,Weather View 32 v70,2013-06-18 02:45:00,
2013-06-17 19:50:00,60.7,53.1,30.06,SSE,162,4.0,17.0,76,0.00,,,0.00,0030,Weather View 32 v70,2013-06-18 02:50:00,
2013-06-17 19:55:00,60.5,53.2,30.06,SSW,207,9.0,17.0,77,0.00,,,0.00,0025,Weather View 32 v70,2013-06-18 02:55:00,
2013-06-17 20:00:00,60.2,53.3,30.06,SSW,207,7.0,17.0,78,0.00,,,0.00,0020,Weather View 32 v70,2013-06-18 03:00:00,
2013-06-17 20:05:00,60.0,53.5,30.06,SSW,207,9.0,17.0,79,0.00,,,0.00,0018,Weather View 32 v70,2013-06-18 03:05:00,
2013-06-17 20:15:00,59.7,53.2,30.06,SSW,207,7.0,14.0,79,0.00,,,0.00,0014,Weather View 32 v70,2013-06-18 03:15:00,
2013-06-17 20:20:00,59.7,53.2,30.06,West,274,6.0,14.0,79,0.00,,,0.00,0011,Weather View 32 v70,2013-06-18 03:20:00,
2013-06-17 20:25:00,59.4,53.2,30.06,SW,229,3.0,14.0,80,0.00,,,0.00,0009,Weather View 32 v70,2013-06-18 03:25:00,
2013-06-17 20:30:00,59.3,52.8,30.06,ENE,72,1.0,14.0,79,0.00,,,0.00,0006,Weather View 32 v70,2013-06-18 03:30:00,
2013-06-17 20:35:00,59.1,52.9,30.06,SW,229,5.0,14.0,80,0.00,,,0.00,0005,Weather View 32 v70,2013-06-18 03:35:00,
2013-06-17 20:40:00,59.2,53.0,30.06,NNE,27,1.0,14.0,80,0.00,,,0.00,0003,Weather View 32 v70,2013-06-18 03:40:00,
2013-06-17 20:50:00,58.9,52.7,30.06,South,184,3.0,14.0,80,0.00,,,0.00,0002,Weather View 32 v70,2013-06-18 03:50:00,
2013-06-17 20:55:00,58.8,52.6,30.06,SSW,207,3.0,14.0,80,0.00,,,0.00,0002,Weather View 32 v70,2013-06-18 03:55:00,
2013-06-17 21:00:00,58.8,53.0,30.06,WSW,252,0.0,13.0,81,0.00,,,0.00,0002,Weather View 32 v70,2013-06-18 04:00:00,
2013-06-17 21:05:00,58.5,52.7,30.06,ESE,117,1.0,13.0,81,0.00,,,0.00,0002,Weather View 32 v70,2013-06-18 04:05:00,
2013-06-17 21:10:00,58.4,52.9,30.06,SE,139,3.0,11.0,82,0.00,,,0.00,0001,Weather View 32 v70,2013-06-18 04:10:00,
2013-06-17 21:20:00,58.4,52.9,30.06,ESE,117,1.0,11.0,82,0.00,,,0.00,0001,Weather View 32 v70,2013-06-18 04:20:00,
2013-06-17 21:25:00,58.2,52.7,30.06,ESE,117,3.0,9.0,82,0.00,,,0.00,0001,Weather View 32 v70,2013-06-18 04:25:00,
2013-06-17 21:30:00,58.2,52.7,30.06,ENE,72,1.0,9.0,82,0.00,,,0.00,0001,Weather View 32 v70,2013-06-18 04:30:00,
2013-06-17 21:35:00,58.2,52.7,30.06,ESE,117,4.0,9.0,82,0.00,,,0.00,0001,Weather View 32 v70,2013-06-18 04:35:00,
2013-06-17 21:40:00,58.2,52.7,30.06,South,184,6.0,8.0,82,0.00,,,0.00,0001,Weather View 32 v70,2013-06-18 04:40:00,
2013-06-17 21:45:00,58.2,52.7,30.06,NE,49,2.0,10.0,82,0.00,,,0.00,0001,Weather View 32 v70,2013-06-18 04:45:00,
2013-06-17 21:55:00,58.0,52.2,30.07,West,274,2.0,10.0,81,0.00,,,0.00,0001,Weather View 32 v70,2013-06-18 04:55:00,
2013-06-17 22:00:00,58.1,52.6,30.07,ENE,72,3.0,10.0,82,0.00,,,0.00,0001,Weather View 32 v70,2013-06-18 05:00:00,
2013-06-17 22:05:00,58.1,52.6,30.06,NE,49,2.0,10.0,82,0.00,,,0.00,0002,Weather View 32 v70,2013-06-18 05:05:00,
2013-06-17 22:10:00,58.2,52.7,30.07,ENE,72,3.0,10.0,82,0.00,,,0.00,0001,Weather View 32 v70,2013-06-18 05:10:00,
2013-06-17 22:15:00,58.0,52.5,30.07,East,94,3.0,10.0,82,0.00,,,0.00,0002,Weather View 32 v70,2013-06-18 05:15:00,
2013-06-17 22:25:00,58.3,52.8,30.07,North,4,2.0,10.0,82,0.00,,,0.00,0001,Weather View 32 v70,2013-06-18 05:25:00,
2013-06-17 22:30:00,58.3,52.8,30.07,SE,139,0.0,10.0,82,0.00,,,0.00,0002,Weather View 32 v70,2013-06-18 05:30:00,
2013-06-17 22:35:00,58.0,52.5,30.07,SE,139,1.0,10.0,82,0.00,,,0.00,0001,Weather View 32 v70,2013-06-18 05:35:00,
2013-06-17 22:40:00,58.2,53.0,30.07,SE,139,2.0,10.0,83,0.00,,,0.00,0001,Weather View 32 v70,2013-06-18 05:40:00,
2013-06-17 22:45:00,58.2,53.0,30.07,SSW,207,1.0,10.0,83,0.00,,,0.00,0002,Weather View 32 v70,2013-06-18 05:45:00,
2013-06-17 22:50:00,58.2,53.0,30.07,East,94,2.0,10.0,83,0.00,,,0.00,0001,Weather View 32 v70,2013-06-18 05:50:00,
2013-06-17 22:55:00,58.1,53.0,30.06,SSW,207,2.0,7.0,83,0.00,,,0.00,0001,Weather View 32 v70,2013-06-18 05:55:00,
2013-06-17 23:05:00,58.1,53.0,30.06,ESE,117,3.0,7.0,83,0.00,,,0.00,0001,Weather View 32 v70,2013-06-18 06:05:00,
2013-06-17 23:10:00,58.1,53.0,30.06,SE,139,0.0,7.0,83,0.00,,,0.00,0002,Weather View 32 v70,2013-06-18 06:10:00,
2013-06-17 23:15:00,58.0,52.9,30.06,North,4,0.0,7.0,83,0.00,,,0.00,0001,Weather View 32 v70,2013-06-18 06:15:00,
2013-06-17 23:20:00,57.9,52.8,30.06,NNE,27,1.0,4.0,83,0.00,,,0.00,0001,Weather View 32 v70,2013-06-18 06:20:00,
2013-06-17 23:25:00,57.8,52.7,30.06,SSE,162,0.0,4.0,83,0.00,,,0.00,0002,Weather View 32 v70,2013-06-18 06:25:00,
2013-06-17 23:35:00,57.4,52.6,30.06,NW,319,0.0,5.0,84,0.00,,,0.00,0001,Weather View 32 v70,2013-06-18 06:35:00,
2013-06-17 23:40:00,57.4,52.9,30.06,South,184,3.0,5.0,85,0.00,,,0.00,0001,Weather View 32 v70,2013-06-18 06:40:00,
2013-06-17 23:45:00,57.5,53.0,30.05,West,274,1.0,5.0,85,0.00,,,0.00,0001,Weather View 32 v70,2013-06-18 06:45:00,
2013-06-17 23:50:00,57.5,53.0,30.06,NE,49,2.0,5.0,85,0.00,,,0.00,0001,Weather View 32 v70,2013-06-18 06:50:00,
2013-06-17 23:55:00,57.6,53.1,30.05,North,4,4.0,9.0,85,0.00,,,0.00,0001,Weather View 32 v70,2013-06-18 06:55:00,